Keahole Point, HI

11:26 PM HST on July 22, 2017 (GMT -1000)
Kona International At Keahole

Weather History for PHKO - March, 2013

Change the Weather History Date:

Monday, March 25, 2013

  Actual Average Record
Temperature  
Mean Temperature 76 °F -  
Max Temperature 81 °F 79 °F 90 °F (1983)
Min Temperature 70 °F 68 °F 66 °F (1998)
Cooling Degree Days 10    
Growing Degree Days 26 (Base 50)    
Moisture  
Dew Point 65 °F    
Average Humidity 68    
Maximum Humidity 78    
Minimum Humidity 58    
Precipitation  
Precipitation 0.00 in - - ()
Sea Level Pressure  
Sea Level Pressure 29.96 in    
Wind  
Wind Speed 9 mph (West)    
Max Wind Speed 14 mph    
Max Gust Speed -    
Visibility 10 miles    
Events      
Averages and records for this station are not official NWS values.
T = Trace of Precipitation, MM = Missing Value Source: NWS Daily Summary

Daily Weather History Graph

Daily Weather History Graph

Search for Another Location

Airport or City:

Trip Planner

Search our weather history database for the weather conditions in past years. The results will help you decide how hot, cold, wet, or windy it might be!

Date:

Astronomy

Mar. 25, 2013 Rise Set
Actual Time 6:23 AM HST 6:36 PM HST
Civil Twilight 6:01 AM HST 6:58 PM HST
Nautical Twilight 5:35 AM HST 7:24 PM HST
Astronomical Twilight 5:10 AM HST 7:50 PM HST
Moon 5:25 PM HST (3/25) 5:03 AM HST (3/25)
Length of Visible Light 12h 57m
Length of Day
12h 13m
Waxing Gibbous, 97% of the Moon is Illuminated
Mar 25
Waxing Gibbous
Mar 26
Full
Apr 2
Last Quarter
Apr 9
New
Apr 18
First Quarter

Hourly Weather History & Observations

Time (HST) Temp. Heat Index Dew Point Humidity Pressure Visibility Wind Dir Wind Speed Gust Speed Precip Events Conditions
12:53 AM 72.0 °F - 64.0 °F 76% 29.96 in 10.0 mi SE 11.5 mph - N/A   Clear
1:53 AM 72.0 °F - 64.9 °F 78% 29.96 in 10.0 mi SE 10.4 mph - N/A   Clear
2:53 AM 72.0 °F - 64.9 °F 78% 29.95 in 10.0 mi East 6.9 mph - N/A   Scattered Clouds
3:53 AM 72.0 °F - 64.9 °F 78% 29.94 in 10.0 mi Calm Calm - N/A   Scattered Clouds
4:53 AM 70.0 °F - 63.0 °F 78% 29.95 in 10.0 mi NE 5.8 mph - N/A   Clear
5:53 AM 70.0 °F - 63.0 °F 78% 29.96 in 10.0 mi NE 8.1 mph - N/A   Mostly Cloudy
6:53 AM 71.1 °F - 62.1 °F 73% 29.97 in 10.0 mi North 6.9 mph - N/A   Clear
7:53 AM 78.1 °F - 63.0 °F 60% 29.99 in 10.0 mi North 9.2 mph - N/A   Overcast
8:53 AM 79.0 °F - 63.0 °F 58% 30.01 in 10.0 mi NNW 5.8 mph - N/A   Scattered Clouds
9:53 AM 80.1 °F 81.7 °F 64.0 °F 58% 30.01 in 10.0 mi NNW 12.7 mph - N/A   Clear
10:53 AM 81.0 °F 83.0 °F 66.0 °F 60% 30.00 in 10.0 mi NW 13.8 mph - N/A   Clear
11:53 AM 81.0 °F 83.8 °F 68.0 °F 65% 29.99 in 10.0 mi WNW 12.7 mph - N/A   Partly Cloudy
12:53 PM 81.0 °F 84.1 °F 69.1 °F 67% 29.97 in 10.0 mi WNW 10.4 mph - N/A   Partly Cloudy
1:11 PM 80.6 °F 83.2 °F 68.0 °F 65% 29.96 in 10.0 mi WNW 9.2 mph - N/A   Mostly Cloudy
1:20 PM 80.6 °F 83.2 °F 68.0 °F 65% 29.96 in 10.0 mi West 10.4 mph - N/A   Partly Cloudy
1:53 PM 80.1 °F 82.7 °F 68.0 °F 67% 29.95 in 10.0 mi West 10.4 mph - N/A   Clear
2:53 PM 80.1 °F 82.3 °F 66.9 °F 64% 29.93 in 10.0 mi West 9.2 mph - N/A   Clear
3:53 PM 80.1 °F 82.3 °F 66.9 °F 64% 29.92 in 10.0 mi West 9.2 mph - N/A   Clear
4:53 PM 79.0 °F - 64.9 °F 62% 29.91 in 10.0 mi WSW 6.9 mph - N/A   Clear
5:53 PM 78.1 °F - 66.0 °F 66% 29.94 in 10.0 mi WSW 5.8 mph - N/A   Clear
6:53 PM 77.0 °F - 66.9 °F 71% 29.94 in 10.0 mi South 6.9 mph - N/A   Clear
7:53 PM 77.0 °F - 66.0 °F 69% 29.96 in 10.0 mi South 10.4 mph - N/A   Clear
8:53 PM 75.9 °F - 66.9 °F 74% 29.98 in 10.0 mi SSE 11.5 mph - N/A   Mostly Cloudy
9:53 PM 75.0 °F - 64.9 °F 71% 29.99 in 10.0 mi SE 10.4 mph - N/A   Partly Cloudy
10:53 PM 75.0 °F - 62.1 °F 64% 29.99 in 10.0 mi SE 6.9 mph - N/A   Clear
11:53 PM 75.0 °F - 62.1 °F 64% 29.99 in 10.0 mi SE 6.9 mph - N/A   Clear